AirNav   BOSE A20 Aviation Headset
 
 1517 users online  

UT36 Wecco Heliport
Cedar City, Utah, USA

GOING TO CEDAR CITY?


FAA INFORMATION EFFECTIVE 26 APRIL 2018

Location

FAA Identifier: UT36
Lat/Long: 37-18-59.9330N / 113-19-02.8200W
37-18.998883N / 113-19.047000W
37.3166481 / -113.3174500
(estimated)
Elevation: 5315 ft. / 1620 m (estimated)
Variation: 14E (1985)
From city: 15 miles NW of CEDAR CITY, UT
Time zone: UTC -6 (UTC -7 during Standard Time)
Zip code: 84757

Heliport Operations

Heliport use: Private use. Permission required prior to landing
Activation date: 03/1990
Control tower: no
ARTCC: LOS ANGELES CENTER
FSS: CEDAR CITY FLIGHT SERVICE STATION
Attendance: DAYLIGHT HOURS
Wind indicator: yes
Segmented circle: no

Heliport Communications

WX AWOS-3PT at SGU (19 nm SW): 135.075 (435-634-0940)

Nearby radio navigation aids

VOR radial/distance  VOR name  Freq  Var
UTIr016/20.3ST GEORGE VOR/DME108.6012E
EHKr187/30.6ENOCH VOR/DME117.3016E

 
NDB name  Hdg/Dist  Freq  Var  ID
COLORADO CITY312/26.040313EAZC .- --.. -.-.

Heliport Services

Runway Information

Helipad H1

Dimensions: 50 x 50 ft. / 15 x 15 m
Surface: concrete
50'X 50' CONC W/20' WIDE ASPH APRON ALL AROUND.
Operational restrictions: INGRESS/EGRESS 220/40 DEGREES.
Traffic pattern: leftleft

Heliport Ownership and Management from official FAA records

Ownership: Privately-owned
Owner: DAVE THAYER
WESTERN ELECTROCHEMICAL CO., 10622 W. 6400 N.
CEDAR CITY, UTAH 84720
Phone 435-865-5000
Manager: FRANK CASPERSON
10622 W. 6400 N.
CEDAR CITY, UTAH 84720
Phone 435-865-6147

Additional Remarks

A52-H1 80' HIGH PLINES 300' S MKD; 30' HIGH BLDG 233' W; & 25' HIGH BLDG 280' N OF HELIPAD.

Instrument Procedures

There are no published instrument procedures at UT36.

Some nearby airports with instrument procedures:

KSGU - St George Regional Airport (19 nm SW)
KCDC - Cedar City Regional Airport (25 nm NE)
KAZC - Colorado City Municipal Airport (26 nm SE)
KKNB - Kanab Municipal Airport (42 nm SE)
U55 - Panguitch Municipal Airport (54 nm NE)
 
Loc | Ops | Rwys | IFR | FBO | Links
Com | Nav | Svcs | Stats | Notes

AirNav Hotels Sweepstakes
 
Area around UT36 (Wecco Heliport)
 
Road maps at: MapQuest Bing Google
 
Aerial photo
No photo
 
Sectional chart

 
Airport distance calculator
Flying to Wecco Heliport? Find the distance to fly.

From to UT36

Sunrise and sunset
Times for 23-May-2018
 Local
(UTC-6)
 Zulu
(UTC)
Morning civil twilight05:5011:50
Sunrise06:2012:20
Sunset20:4002:40
Evening civil twilight21:1003:10

Current date and time
Zulu (UTC)  23-May-2018 20:36:02
Local (UTC-6)  23-May-2018 14:36:02
 
METAR
KSGU 
20nm SW 
231956Z AUTO 26005G16KT 10SM CLR 28/02 A2990 RMK AO2 SLP095 T02780017
KCDC 
25nm NE 
231953Z AUTO 26009G18KT 210V300 10SM FEW085 23/M01 A3002 RMK AO2 SLP105 T02331006
KAZC 
26nm SE 
232015Z AUTO 14007KT 10SM CLR 26/M03 A3004 RMK AO2
TAF
KSGU 
20nm SW 
231727Z 2318/2418 24008KT P6SM FEW090 SCT150 FM240200 VRB04KT P6SM SKC
NOTAMs
Click for the latest NOTAMs
NOTAMs are issued by the DoD/FAA and will open in a separate window not controlled by AirNav.

 

 
 

Would you like to see your business listed on this page?

 If your business provides an interesting product or service to pilots, flight crews, aircraft, or users of the Wecco Heliport, you should consider listing it here.  To start the listing process, click on the button below
 
Add a business
 

Other Pages about Wecco Heliport

Update a link
 
Copyright © AirNav, LLC. All rights reserved. Privacy Policy  Contact